Anula, Australia

5:30 PM ACST on April 26, 2017 (GMT +0930)
Anula

Weather History for 94120 - December, 2013

Change the Weather History Date:

Sunday, December 29, 2013

  Actual Average Record
Temperature  
Mean Temperature 80 °F -  
Max Temperature 88 °F 89 °F - ()
Min Temperature 73 °F 77 °F - ()
Cooling Degree Days 16    
Growing Degree Days 30 (Base 50)    
Moisture  
Dew Point 75 °F    
Average Humidity 81    
Maximum Humidity 94    
Minimum Humidity 52    
Precipitation  
Precipitation 0.00 in 0.56 in - ()
Sea Level Pressure  
Sea Level Pressure 29.78 in    
Wind  
Wind Speed 7 mph ()    
Max Wind Speed 17 mph    
Max Gust Speed 30 mph    
Visibility 7.5 miles    
Events Rain    
T = Trace of Precipitation, MM = Missing Value Source: Averaged Metar Reports

Daily Weather History Graph

Daily Weather History Graph

Search for Another Location

Airport or City:

Trip Planner

Search our weather history database for the weather conditions in past years. The results will help you decide how hot, cold, wet, or windy it might be!

Date:

Astronomy

Dec. 29, 2013 Rise Set
Actual Time 6:22 AM ACST 7:13 PM ACST
Civil Twilight 5:59 AM ACST 7:37 PM ACST
Nautical Twilight 5:32 AM ACST 8:04 PM ACST
Astronomical Twilight 5:04 AM ACST 8:32 PM ACST
Moon 2:58 AM ACST (12/29) 3:55 PM ACST (12/29)
Length of Visible Light 13h 37m
Length of Day
12h 51m
Waning Crescent, 16% of the Moon is Illuminated
Dec 29
Waning Crescent
Jan 1
New
Jan 8
First Quarter
Jan 16
Full
Jan 24
Last Quarter

Hourly Weather History & Observations

Time (ACST) Temp. Heat Index Dew Point Humidity Pressure Visibility Wind Dir Wind Speed Gust Speed Precip Events Conditions
12:00 AM 81 °F - 78 °F 89% 29.81 in 19 mi ENE 5.8 mph - -   Partly Cloudy
12:00 AM 80.6 °F 88.1 °F 78.8 °F 94% 29.80 in 6.2 mi ENE 5.8 mph - N/A   Mostly Cloudy
12:30 AM 81 °F - 78 °F 88% 29.80 in - North 4.6 mph - -  
12:30 AM 80.6 °F 88.1 °F 78.8 °F 94% 29.80 in 6.2 mi North 4.6 mph - N/A   Mostly Cloudy
1:00 AM 80.6 °F 88.1 °F 78.8 °F 94% 29.77 in - NE 3.5 mph - N/A   Clear
1:30 AM 80.6 °F 87.1 °F 77.0 °F 89% 29.77 in 6.2 mi East 4.6 mph - N/A   Mostly Cloudy
2:00 AM 80.6 °F 87.1 °F 77.0 °F 89% 29.77 in 6.2 mi East 6.9 mph - N/A   Mostly Cloudy
2:30 AM 80.6 °F 88.1 °F 78.8 °F 94% 29.77 in 6.2 mi ENE 4.6 mph - N/A   Mostly Cloudy
3:00 AM 80 °F - 78 °F 91% 29.76 in 19 mi NNE 4.6 mph - -   Overcast
3:00 AM 80.6 °F 88.1 °F 78.8 °F 94% 29.74 in 6.2 mi NNE 4.6 mph - N/A   Mostly Cloudy
3:30 AM 80 °F - 77 °F 89% 29.76 in - East 5.8 mph - -  
3:30 AM 80.6 °F 87.1 °F 77.0 °F 89% 29.74 in 6.2 mi East 5.8 mph - N/A   Mostly Cloudy
4:00 AM 80.6 °F 87.1 °F 77.0 °F 89% 29.77 in 6.2 mi East 6.9 mph - N/A   Mostly Cloudy
4:30 AM 80.6 °F 87.1 °F 77.0 °F 89% 29.77 in 6.2 mi ESE 9.2 mph - N/A   Mostly Cloudy
5:00 AM 78.8 °F - 77.0 °F 94% 29.77 in 6.2 mi ESE 10.4 mph - N/A   Mostly Cloudy
5:30 AM 78.8 °F - 77.0 °F 94% 29.80 in 6.2 mi SE 11.5 mph - N/A   Mostly Cloudy
5:41 AM 78.8 °F - 77.0 °F 94% 29.80 in 6.2 mi ESE 13.8 mph - N/A   Mostly Cloudy
5:58 AM 78.8 °F - 73.4 °F 83% 29.80 in 5.6 mi ESE 16.1 mph - N/A Rain Rain Showers
6:00 AM 77 °F - 74 °F 86% 29.81 in 3 mi ESE 17.3 mph - - Rain Heavy Rain Showers
6:00 AM 77.0 °F - 73.4 °F 89% 29.80 in 5.0 mi ESE 17.3 mph 29.9 mph N/A Rain Rain Showers
6:30 AM 74 °F - 72 °F 91% 29.84 in - ESE 15.0 mph - -  
6:30 AM 75.2 °F - 71.6 °F 89% 29.83 in 1.9 mi ESE 15.0 mph - N/A Rain Rain Showers
7:00 AM 73.4 °F - 71.6 °F 94% 29.83 in 2.5 mi ESE 17.3 mph - N/A Rain Rain Showers
7:13 AM 73.4 °F - 71.6 °F 94% 29.83 in 5.0 mi East 17.3 mph - N/A Rain Light Rain Showers
7:30 AM 75.2 °F - 71.6 °F 89% 29.83 in 6.2 mi East 16.1 mph - N/A Rain Light Rain
8:00 AM 75.2 °F - 71.6 °F 89% 29.83 in 6.2 mi East 11.5 mph - N/A   Mostly Cloudy
8:30 AM 77.0 °F - 71.6 °F 83% 29.83 in 6.2 mi NE 9.2 mph - N/A   Mostly Cloudy
9:00 AM 79 °F - 73 °F 76% 29.83 in 19 mi NE 9.2 mph - -   Partly Cloudy
9:00 AM 78.8 °F - 73.4 °F 83% 29.83 in 6.2 mi NE 9.2 mph - N/A   Mostly Cloudy
9:30 AM 79 °F - 73 °F 78% 29.85 in - North 9.2 mph - -  
9:30 AM 78.8 °F - 73.4 °F 83% 29.86 in - North 9.2 mph - N/A   Clear
10:00 AM 80.6 °F 86.2 °F 75.2 °F 84% 29.86 in 6.2 mi North 10.4 mph - N/A Rain Light Rain
10:30 AM 80.6 °F 85.4 °F 73.4 °F 79% 29.86 in 6.2 mi North 6.9 mph - N/A Rain Light Rain
11:00 AM 82.4 °F 89.5 °F 75.2 °F 79% 29.83 in 6.2 mi NNE 1.2 mph - N/A Rain Light Rain
11:30 AM 82.4 °F 89.5 °F 75.2 °F 79% 29.80 in 6.2 mi NNE 3.5 mph - N/A Rain Light Rain
12:00 PM 83 °F - 74 °F 69% 29.79 in 16 mi NE 1.2 mph - - Rain Light Rain
12:00 PM 82.4 °F 89.5 °F 75.2 °F 79% 29.77 in 6.2 mi NE 1.2 mph - N/A Rain Light Rain
12:30 PM 83 °F - 75 °F 71% 29.78 in - ENE 4.6 mph - -  
12:30 PM 84.2 °F 92.3 °F 75.2 °F 74% 29.77 in 6.2 mi ENE 4.6 mph - N/A Rain Light Rain
1:00 PM 84.2 °F 92.3 °F 75.2 °F 74% 29.77 in 6.2 mi NE 4.6 mph - N/A Rain Light Rain
1:30 PM 86.0 °F 95.1 °F 75.2 °F 70% 29.74 in 6.2 mi NNW 6.9 mph - N/A   Mostly Cloudy
2:00 PM 86.0 °F 93.4 °F 73.4 °F 66% 29.74 in 6.2 mi West 6.9 mph - N/A   Mostly Cloudy
2:30 PM 87.8 °F 95.6 °F 73.4 °F 62% 29.74 in 6.2 mi NW 4.6 mph - N/A   Mostly Cloudy
3:00 PM 88 °F - 73 °F 54% 29.73 in 19 mi West 4.6 mph - -   Partly Cloudy
3:00 PM 87.8 °F 95.6 °F 73.4 °F 62% 29.74 in 6.2 mi West 4.6 mph - N/A   Mostly Cloudy
3:30 PM 87 °F - 77 °F 66% 29.74 in - WNW 8.1 mph - -  
3:30 PM 87.8 °F 99.7 °F 77.0 °F 70% 29.74 in 6.2 mi WNW 8.1 mph - N/A   Mostly Cloudy
4:00 PM 86.0 °F 96.9 °F 77.0 °F 74% 29.74 in 6.2 mi West 8.1 mph - N/A   Mostly Cloudy
4:30 PM 86.0 °F 95.1 °F 75.2 °F 70% 29.71 in 6.2 mi WNW 8.1 mph - N/A   Mostly Cloudy
5:00 PM 86.0 °F 93.4 °F 73.4 °F 66% 29.74 in 6.2 mi West 6.9 mph - N/A   Mostly Cloudy
5:30 PM 87.8 °F 92.6 °F 69.8 °F 55% 29.71 in 6.2 mi WNW 8.1 mph - N/A   Mostly Cloudy
6:00 PM 87 °F - 72 °F 52% 29.74 in 19 mi WNW 8.1 mph - -   Partly Cloudy
6:00 PM 87.8 °F 93.8 °F 71.6 °F 58% 29.74 in 6.2 mi WNW 8.1 mph - N/A   Mostly Cloudy
6:30 PM 85 °F - 72 °F 58% 29.75 in - WNW 5.8 mph - -  
6:30 PM 84.2 °F 90.9 °F 73.4 °F 70% 29.74 in 6.2 mi WNW 5.8 mph - N/A   Mostly Cloudy
7:00 PM 84.2 °F 90.9 °F 73.4 °F 70% 29.74 in 6.2 mi WNW 4.6 mph - N/A   Mostly Cloudy
7:30 PM 82.4 °F 89.5 °F 75.2 °F 79% 29.77 in 6.2 mi North 1.2 mph - N/A   Mostly Cloudy
8:00 PM 82.4 °F 89.5 °F 75.2 °F 79% 29.77 in 6.2 mi NE 3.5 mph - N/A   Mostly Cloudy
8:30 PM 82.4 °F 90.9 °F 77.0 °F 84% 29.77 in 6.2 mi North 3.5 mph - N/A   Mostly Cloudy
9:00 PM 81 °F - 77 °F 84% 29.79 in 19 mi North 4.6 mph - -   Partly Cloudy
9:00 PM 80.6 °F 87.1 °F 77.0 °F 89% 29.80 in 6.2 mi North 4.6 mph - N/A   Mostly Cloudy
9:30 PM 81 °F - 77 °F 83% 29.80 in - North 4.6 mph - -  
9:30 PM 80.6 °F 87.1 °F 77.0 °F 89% 29.80 in 6.2 mi North 4.6 mph - N/A   Scattered Clouds
10:00 PM 80.6 °F 87.1 °F 77.0 °F 89% 29.80 in 6.2 mi NNE 2.3 mph - N/A   Scattered Clouds
10:30 PM 80.6 °F 87.1 °F 77.0 °F 89% 29.80 in 6.2 mi NNE 5.8 mph - N/A   Scattered Clouds
11:00 PM 80.6 °F 87.1 °F 77.0 °F 89% 29.83 in 6.2 mi North 4.6 mph - N/A   Scattered Clouds
11:30 PM 80.6 °F 87.1 °F 77.0 °F 89% 29.83 in 6.2 mi NNW 5.8 mph - N/A   Scattered Clouds